EW9931 Weather Reports


time (UTC)temp
C
wind
direction
speed
KPH
gust
KPH
rain 1hr
cm
rain 24hr
cm
rain mn
cm
humidity
%
barometer
mb
20260504050022 2 202 6.4 0.0 0.00 0.00 0.00 87 1002.9
20260504044520 2 171 6.4 0.0 0.00 0.00 0.00 85 1002.9
20260504043018 2 189 4.8 0.0 0.00 0.00 0.00 85 1002.8
20260504041515 2 168 4.8 0.0 0.00 0.00 0.00 85 1002.4
20260504040014 2 119 4.8 0.0 0.00 0.00 0.00 84 1002.7
20260504034511 3 217 3.2 0.0 0.00 0.00 0.00 84 1003.0
20260504033012 3 176 3.2 0.0 0.00 0.00 0.00 84 1002.6
20260504031511 3 213 6.4 0.0 0.00 0.00 0.00 83 1002.5
20260504030005 3 217 8.0 0.0 0.00 0.00 0.00 81 1002.6
20260504024502 4 172 8.0 0.0 0.00 0.00 0.00 80 1002.4
20260504023059 4 144 6.4 0.0 0.00 0.00 0.00 75 1002.0
20260504021557 5 172 3.2 0.0 0.00 0.00 0.00 75 1001.9
20260504020104 5 196 6.4 0.0 0.00 0.00 0.00 71 1001.8
20260504014550 6 124 3.2 0.0 0.00 0.00 0.00 68 1002.0
20260504013052 7 134 1.6 0.0 0.00 0.00 0.00 66 1001.8
20260504011544 8 208 4.8 0.0 0.00 0.00 0.00 62 1001.6
20260504010052 11 209 3.2 0.0 0.00 0.00 0.00 45 1000.6
20260504004545 10 169 3.2 0.0 0.00 0.00 0.00 43 1000.8
20260504003042 10 140 4.8 0.0 0.00 0.00 0.00 51 1001.1
20260504001541 10 226 6.4 0.0 0.00 0.00 0.00 54 1001.1
20260504000038 11 233 6.4 0.0 0.00 0.00 0.00 47 1000.3
20260503234541 12 134 1.6 0.0 0.00 0.00 0.00 41 1000.0
20260503233038 12 133 3.2 0.0 0.00 0.00 0.00 42 1000.2
20260503231537 11 147 4.8 0.0 0.00 0.00 0.00 47 1000.8
20260503230050 12 157 3.2 0.0 0.00 0.00 0.00 48 1000.9
20260503224535 11 199 4.8 0.0 0.00 0.00 0.00 43 1001.2
20260503223035 11 112 4.8 0.0 0.00 0.00 0.00 43 1001.5
20260503221538 11 247 3.2 0.0 0.00 0.00 0.00 44 1001.6
20260503220037 11 308 4.8 0.0 0.00 0.00 0.00 45 1001.6
20260503214546 12 226 4.8 0.0 0.00 0.00 0.00 43 1001.2
20260503213035 11 210 4.8 0.0 0.00 0.00 0.00 36 1001.5
20260503211532 12 270 6.4 0.0 0.00 0.00 0.00 34 1001.3
20260503210031 13 299 4.8 0.0 0.00 0.00 0.00 32 1000.9
20260503204536 13 230 3.2 0.0 0.00 0.00 0.00 29 1000.8
20260503203030 13 210 3.2 0.0 0.00 0.00 0.00 27 1000.4
20260503201528 13 147 3.2 0.0 0.00 0.00 0.00 26 1001.1
20260503200029 13 110 4.8 0.0 0.00 0.00 0.00 27 1001.3
20260503194527 13 191 3.2 0.0 0.00 0.00 0.00 27 1001.5
20260503193024 12 123 4.8 0.0 0.00 0.00 0.00 29 1002.1
20260503191522 12 196 4.8 0.0 0.00 0.00 0.00 31 1002.4
20260503190031 12 232 3.2 0.0 0.00 0.00 0.00 30 1002.6
20260503184521 12 219 3.2 0.0 0.00 0.00 0.00 31 1002.5
20260503183020 12 165 4.8 0.0 0.00 0.00 0.00 30 1002.8
20260503181537 12 202 3.2 0.0 0.00 0.00 0.00 29 1002.8
20260503180031 12 112 4.8 0.0 0.00 0.00 0.00 28 1002.8
20260503174517 12 232 4.8 0.0 0.00 0.00 0.00 27 1002.8
20260503173016 12 128 3.2 0.0 0.00 0.00 0.00 26 1002.9
20260503171523 11 222 3.2 0.0 0.00 0.00 0.00 25 1002.9
20260503120105 8 120 0.0 0.0 0.00 0.00 0.00 28 1000.8
20260503110122 9 114 0.0 0.0 0.00 0.00 0.00 28 1000.7
20260503081535 9 141 0.0 0.0 0.00 0.00 0.00 44 1001.3
20260503071532 10 137 0.0 0.0 0.00 0.00 0.00 44 1002.1